Regional Weather Roundup
Issued by NWS

Home | Current Version | Previous Version | Text Only | Print | Product List | Glossary On
Versions: 1 2 3 4 5 6 7 8 9 10 11 12 13 14 15 16 17 18 19 20 21 22 23 24 25 26 27 28 29 30 31 32 33 34 35 36 37 38 39 40 41 42 43 44 45 46 47 48 49 50
000
ASUS44 KBMX 300310
RWRAL

ALABAMA REGIONAL WEATHER ROUNDUP
NATIONAL WEATHER SERVICE BIRMINGHAM AL
900 PM CST THU JAN 29 2015

NOTE: "FAIR" INDICATES FEW OR NO CLOUDS BELOW 12,000 FEET
WITH NO SIGNIFICANT WEATHER AND/OR OBSTRUCTIONS TO VISIBILITY.

THE REMARK "TC" DENOTES TEMPERATURE IN DEGREES CELSIUS.

ALZ001>011-014-016>018-020-300400-
NORTH ALABAMA

CITY           SKY/WX    TMP DP  RH WIND       PRES   REMARKS
MUSCLE SHOALS  CLOUDY    45  31  58 N14G21    30.30R
HUNTSVILLE     CLOUDY    47  35  63 NW18G26   30.25R
DECATUR        CLOUDY    46  35  65 N20       30.27R
HALEYVILLE       N/A     44  35  70 N16G26    30.28R
GADSDEN        CLOUDY   N/A N/A N/A NW6       30.13R
$$

ALZ012-013-022-023-030>036-040>044-300400-
WEST CENTRAL ALABAMA

CITY           SKY/WX    TMP DP  RH WIND       PRES   REMARKS
TUSCALOOSA     CLOUDY    62  47  57 NW10      30.18R
$$

ALZ015-024>027-033>036-040>044-300400-
CENTRAL ALABAMA

CITY           SKY/WX    TMP DP  RH WIND       PRES   REMARKS
BIRMINGHAM     CLOUDY    60  46  59 NW13G21   30.16S
MONTGOMERY     PTCLDY    61  50  67 S8G16     30.14S
SHELBY CO ARPT CLOUDY    61  48  62 NW7       30.14R
MAXWELL AFB    CLOUDY    60  51  70 SW6       30.13S
GREENVILLE     FAIR      59  51  75 SW12      30.15F
$$

ALZ019-021-028-029-037-038-045>048-300400-
EAST CENTRAL ALABAMA

CITY           SKY/WX    TMP DP  RH WIND       PRES   REMARKS
ANNISTON       CLOUDY    53  45  74 W5        30.12F
ALEXANDER CITY CLOUDY    59  44  58 CALM      30.13R
AUBURN         CLOUDY    54  43  66 S9        30.16F
$$

ALZ051>064-300400-
SOUTHWEST ALABAMA

CITY           SKY/WX    TMP DP  RH WIND       PRES   REMARKS
MOBILE         PTCLDY    57  54  89 SW6       30.20S
BROOKLEY FIELD PTCLDY    61  55  81 VRB5      30.21S
EVERGREEN      CLEAR     58  52  80 SW6       30.19R
$$

ALZ049-050-065>069-300400-
SOUTHEAST ALABAMA

CITY           SKY/WX    TMP DP  RH WIND       PRES   REMARKS
DOTHAN         MOCLDY    55  50  83 SW12      30.22R
OZARK          CLOUDY    55  49  83 S7        30.19S
TROY           PTCLDY    57  50  77 SW9       30.17F
EUFAULA        FAIR      58  50  75 SW5       30.16S
$$



USA.gov is the U.S. government's official web portal to all federal, state and local government web resources and services.